[[{"header":{"parameterUnit":"m.s-1","parameterCategory":2,"la1":30.2991,"la2":30.254,"lo1":-89.0895,"lo2":-89.0444,"dy":0.0017,"dx":0.0017,"nx":28,"ny":28,"refTime":"2025-07-19T21:00:00:Z","depth":"0","parameterNumber":2,"parameterNumberName":"U-component_of_CURRENTS"},"data":[0,0,0,0,0,0,0,0,0,0,0,0,0,0,0,0,0,0,0,0,0,0,0,0,0,0,0,0,0,0,0,0,0,0,0,0,0,0,0,0,0,0,0,0,0,0,0,0,0,0,0,0,0,0,0,0,0,0,0.2631,0.2632,0,0.2633,0.2633,0.2633,0.2617,0.2617,0.2617,0.2617,0.2583,0.2582,0.2581,0,0,0,0,0,0,0,0,0,0,0,0,0,0.2607,0.2607,0.2631,0.2632,0.2632,0.2633,0.2633,0.2632,0.2617,0.2617,0.2617,0.2617,0.2583,0.2582,0.2581,0,0,0,0,0,0,0,0,0,0,0,0,0,0.261,0.2607,0.2631,0.2627,0.2627,0.2633,0.2633,0.2632,0.2617,0.2617,0.2617,0.2617,0.2583,0.2582,0.2581,0.2575,0,0,0.2577,0.2577,0,0,0,0,0,0,0,0,0.261,0.2611,0.2628,0.2628,0.2628,0.2628,0.2612,0.2613,0.2617,0.2617,0.2617,0.2617,0.2597,0.2595,0.259,0.2574,0.2572,0.2577,0.2576,0.2576,0.2575,0,0,0,0,0,0,0,0.261,0.2611,0.2628,0.2628,0.2628,0.2623,0.2623,0.2612,0.2604,0.2617,0.2617,0.2623,0.2596,0.2592,0.2589,0.2572,0.2577,0.2576,0.2575,0.2575,0.2578,0.2578,0,0,0,0,0,0,0.2618,0.2611,0.2628,0.2629,0.2623,0.2624,0.2624,0.2625,0.2605,0.2603,0.2623,0.2623,0.2594,0.2591,0.2588,0.26,0.2576,0.2575,0.2574,0.2577,0.2578,0.2579,0,0,0,0,0,0,0.2618,0.262,0.2628,0.2623,0.2624,0.2625,0.2626,0.2625,0.2623,0.2611,0.2608,0.2623,0.2594,0.259,0.2589,0.2598,0.2574,0.2573,0.2576,0.2577,0.2578,0.2611,0,0,0,0,0,0,0.2617,0.2619,0.262,0.2623,0.2625,0.2634,0.2627,0.2625,0.2629,0.2628,0.261,0.2606,0.2593,0.2591,0.2588,0.2596,0.2572,0.2575,0.2576,0.2578,0.2609,0.2613,0.2617,0,0,0,0,0,0.2616,0.2614,0.2619,0.2622,0.2626,0.2635,0.2634,0.2632,0.2629,0.2629,0.2624,0.2607,0.2599,0.2591,0.2587,0.2594,0.2574,0.2576,0.2578,0.2607,0.2612,0.2617,0,0,0,0,0,0,0.2595,0.2614,0.2619,0.2621,0.2631,0.2634,0.2634,0.2635,0.2631,0.2631,0.2615,0.2611,0.2612,0.2603,0.2594,0.2602,0.2585,0.2586,0.2608,0.2613,0.2617,0.2624,0.2571,0,0,0,0,0,0.2595,0.2603,0.2618,0.262,0.2627,0.2633,0.2635,0.2638,0.2638,0.2636,0.2626,0.262,0.2616,0.2615,0.2606,0.261,0.2693,0.2614,0.2618,0.2621,0.2626,0.2755,0.2773,0.2585,0.2585,0.2585,0,0,0.2585,0.26,0.2601,0.2618,0.2624,0.2637,0.2632,0.2641,0.2649,0.2633,0.2634,0.2629,0.262,0.2625,0.2625,0.2618,0.2735,0.2624,0.2626,0.2629,0.2759,0.2778,0.2795,0.2586,0.2586,0.2586,0,0,0.2579,0.2586,0.2596,0.2611,0.2633,0.2638,0.2644,0.2653,0.2654,0.266,0.2653,0.2659,0.2647,0.2649,0.2648,0.267,0.2748,0.2667,0.2694,0.282,0.2838,0.2854,0.3059,0.3093,0.2672,0.2672,0.2672,0,0.2563,0.2585,0.2598,0.2619,0.2629,0.2641,0.2653,0.2659,0.2666,0.2673,0.2665,0.2677,0.266,0.2683,0.2686,0.2678,0.2798,0.2674,0.2829,0.2846,0.2862,0.3068,0.3105,0.2674,0.2674,0.2674,0.2673,0,0.2576,0.2593,0.26,0.2631,0.2641,0.2654,0.2671,0.2679,0.2683,0.2694,0.2715,0.2711,0.2724,0.2718,0.2703,0.2792,0.2864,0.2821,0.2822,0.2883,0.3097,0.3135,0.2677,0.2676,0.2675,0.2675,0,0,0.254,0.2595,0.26,0.2618,0.265,0.2658,0.2675,0.2696,0.2725,0.273,0.2778,0.2758,0.2773,0.2773,0.2771,0.2861,0.3083,0.2891,0.2897,0.3106,0.3457,0.3513,0.3561,0.3083,0.3088,0.3091,0.359,0,0.2544,0.2584,0.2607,0.2634,0.2654,0.2672,0.269,0.2712,0.274,0.2792,0.2805,0.2849,0.2793,0.2825,0.2899,0.3039,0.3173,0.2958,0.3355,0.3369,0.3417,0.36,0.3507,0.3942,0.3627,0.3634,0.3638,0,0.2556,0.2581,0.2611,0.2649,0.2657,0.2671,0.2713,0.2735,0.2805,0.2835,0.2884,0.2922,0.3043,0.2985,0.3284,0.3164,0.3312,0.342,0.3441,0.3498,0.3492,0.3813,0.4023,0.3878,0.3697,0.3692,0.3688,0,0.2543,0.2583,0.2605,0.262,0.2663,0.2672,0.2689,0.2744,0.2806,0.2892,0.299,0.3082,0.3219,0.3367,0.3568,0.3468,0.3942,0.3834,0.4037,0.4047,0.4045,0.4045,0.416,0.4063,0.4061,0.406,0.4059,0,0.2553,0.2575,0.2601,0.262,0.2657,0.2668,0.2727,0.2763,0.2866,0.2991,0.3026,0.3184,0.3327,0.3585,0.3695,0.4039,0.4069,0.4114,0.4185,0.4061,0.4056,0.3985,0.3865,0.4079,0.4075,0.4071,0.4068,0,0.2585,0.2584,0.263,0.2659,0.2665,0.27,0.2781,0.2861,0.2932,0.3119,0.3177,0.3385,0.3713,0.3893,0.4222,0.4279,0.4437,0.4629,0.4515,0.456,0.4534,0.442,0.4484,0.4362,0.4958,0.4962,0.4966,0,0.2642,0.2661,0.2685,0.2732,0.2757,0.2798,0.2863,0.29,0.3012,0.3253,0.3391,0.3722,0.3949,0.4468,0.4637,0.4939,0.4674,0.5013,0.4743,0.4589,0.4516,0.4235,0.4102,0.4813,0.4815,0.4817,0.4818,0,0.278,0.2764,0.2801,0.2846,0.2904,0.2958,0.3042,0.3114,0.3213,0.3371,0.3616,0.3801,0.4301,0.4562,0.4949,0.5072,0.4749,0.5059,0.4917,0.4446,0.4134,0.4031,0.4477,0.4834,0.4832,0.4831,0.483,0.483,0.2911,0.2943,0.2945,0.2987,0.3043,0.3071,0.3082,0.3201,0.3305,0.3492,0.3718,0.3971,0.4394,0.4898,0.5006,0.5091,0.4928,0.4969,0.488,0.4638,0.4366,0.4886,0.5269,0.527,0.5271,0.5272,0.5272,0,0.3029,0.3024,0.3099,0.3077,0.3107,0.3102,0.3181,0.3177,0.325,0.3517,0.3697,0.4107,0.445,0.4729,0.4993,0.4905,0.4635,0.4781,0.4322,0.4223,0.4762,0.4592,0.4821,0.4821,0.4821,0.4821,0.4821,0.4821,0.3095,0.3117,0.3094,0.3094,0.3095,0.3048,0.3047,0.3072,0.3197,0.3385,0.3596,0.3852,0.4237,0.4643,0.4677,0.4604,0.4205,0.4119,0.4014,0.4341,0.4346,0.435,0.4161,0.4296,0.4295,0.3319,0.3312,0.3306]},{"header":{"parameterUnit":"m.s-1","parameterCategory":2,"la1":30.2991,"la2":30.254,"lo1":-89.0895,"lo2":-89.0444,"dy":0.0017,"dx":0.0017,"nx":28,"ny":28,"refTime":"2025-07-19T21:00:00:Z","depth":"0","parameterNumber":3,"parameterNumberName":"V-component_of_CURRENTS"},"data":[0,0,0,0,0,0,0,0,0,0,0,0,0,0,0,0,0,0,0,0,0,0,0,0,0,0,0,0,0,0,0,0,0,0,0,0,0,0,0,0,0,0,0,0,0,0,0,0,0,0,0,0,0,0,0,0,0,0,-0.1193,-0.1194,0,-0.1276,-0.1277,-0.1278,-0.1302,-0.1301,-0.1301,-0.13,-0.1433,-0.1437,-0.1441,0,0,0,0,0,0,0,0,0,0,0,0,0,-0.1066,-0.1068,-0.1193,-0.1194,-0.1195,-0.1275,-0.1277,-0.1278,-0.1302,-0.1301,-0.1301,-0.13,-0.1432,-0.1437,-0.1441,0,0,0,0,0,0,0,0,0,0,0,0,0,-0.1132,-0.1069,-0.1193,-0.1217,-0.1219,-0.1275,-0.1277,-0.1278,-0.1302,-0.1301,-0.1301,-0.13,-0.143,-0.1436,-0.1442,-0.1492,0,0,-0.146,-0.1463,0,0,0,0,0,0,0,0,-0.1128,-0.1137,-0.1212,-0.1215,-0.1218,-0.1278,-0.128,-0.1352,-0.1302,-0.1271,-0.13,-0.13,-0.1386,-0.1396,-0.1412,-0.1498,-0.1504,-0.1461,-0.1464,-0.1467,-0.1469,0,0,0,0,0,0,0,-0.1123,-0.1133,-0.1226,-0.1213,-0.1217,-0.1226,-0.1235,-0.1294,-0.1332,-0.1273,-0.1275,-0.1285,-0.1388,-0.1406,-0.1416,-0.1506,-0.1461,-0.1466,-0.1469,-0.1472,-0.1644,-0.1645,0,0,0,0,0,0,-0.1114,-0.1129,-0.1223,-0.1228,-0.1171,-0.1229,-0.1239,-0.1259,-0.1331,-0.134,-0.1285,-0.1285,-0.1397,-0.1409,-0.1421,-0.147,-0.1467,-0.1472,-0.1476,-0.1643,-0.1645,-0.1646,0,0,0,0,0,0,-0.1111,-0.1122,-0.122,-0.1179,-0.1193,-0.1232,-0.1255,-0.1261,-0.1279,-0.1339,-0.1349,-0.1296,-0.1397,-0.1412,-0.1473,-0.1476,-0.1475,-0.148,-0.1642,-0.1644,-0.1645,-0.1578,0,0,0,0,0,0,-0.1107,-0.1121,-0.1134,-0.1179,-0.1194,-0.1256,-0.1256,-0.1263,-0.1286,-0.1287,-0.1352,-0.1364,-0.1397,-0.1463,-0.1478,-0.1484,-0.1485,-0.1641,-0.1643,-0.1645,-0.1579,-0.1577,-0.1576,0,0,0,0,0,-0.1103,-0.1126,-0.1135,-0.1146,-0.1212,-0.1257,-0.1266,-0.1291,-0.1287,-0.1302,-0.1341,-0.1362,-0.1486,-0.1469,-0.1487,-0.1494,-0.164,-0.1642,-0.1645,-0.158,-0.1578,-0.1576,0,0,0,0,0,0,-0.1077,-0.1132,-0.1142,-0.1181,-0.1215,-0.1261,-0.128,-0.1291,-0.1333,-0.1336,-0.138,-0.1395,-0.1448,-0.1489,-0.1469,-0.1552,-0.1566,-0.1572,-0.1511,-0.1509,-0.1508,-0.1431,-0.149,0,0,0,0,0,-0.1078,-0.1112,-0.1157,-0.1187,-0.1205,-0.124,-0.1261,-0.1278,-0.1319,-0.1336,-0.1377,-0.1427,-0.1474,-0.1503,-0.1556,-0.1607,-0.1543,-0.1624,-0.1622,-0.162,-0.1572,-0.1482,-0.1464,-0.1653,-0.1653,-0.1653,0,0,-0.1075,-0.1111,-0.1129,-0.1184,-0.1213,-0.1237,-0.1252,-0.1287,-0.1297,-0.1347,-0.1381,-0.1428,-0.1488,-0.1536,-0.1564,-0.1568,-0.1534,-0.1623,-0.162,-0.1572,-0.1481,-0.1462,-0.1445,-0.1655,-0.1655,-0.1654,0,0,-0.1085,-0.112,-0.1147,-0.1175,-0.1221,-0.1242,-0.1249,-0.1296,-0.1307,-0.1353,-0.1381,-0.1411,-0.1509,-0.1523,-0.1549,-0.1572,-0.1529,-0.1616,-0.1542,-0.1456,-0.1437,-0.142,-0.1299,-0.1272,-0.1613,-0.1612,-0.1612,0,-0.1074,-0.1111,-0.116,-0.1188,-0.1194,-0.1239,-0.1246,-0.1278,-0.1333,-0.1311,-0.136,-0.1412,-0.1487,-0.1478,-0.1502,-0.156,-0.149,-0.1541,-0.1444,-0.1427,-0.141,-0.129,-0.1261,-0.1609,-0.161,-0.161,-0.161,0,-0.1101,-0.1123,-0.114,-0.1182,-0.1202,-0.1218,-0.1255,-0.1265,-0.1283,-0.1288,-0.1285,-0.1363,-0.136,-0.1425,-0.1484,-0.1415,-0.1394,-0.1447,-0.1429,-0.1385,-0.1264,-0.1234,-0.1605,-0.1606,-0.1607,-0.1608,0,0,-0.1066,-0.1141,-0.114,-0.1122,-0.1187,-0.1181,-0.1206,-0.1191,-0.1118,-0.1204,-0.1096,-0.1232,-0.1218,-0.1244,-0.1305,-0.1272,-0.1133,-0.1312,-0.1309,-0.1153,-0.0892,-0.0865,-0.083,-0.116,-0.1155,-0.1152,-0.0847,0,-0.1052,-0.1072,-0.1124,-0.1102,-0.109,-0.1122,-0.1104,-0.1097,-0.1084,-0.0997,-0.1048,-0.0992,-0.1165,-0.1122,-0.1127,-0.1102,-0.1053,-0.1207,-0.0991,-0.0983,-0.0933,-0.0795,-0.0841,-0.0572,-0.0817,-0.0812,-0.0809,0,-0.1028,-0.1039,-0.102,-0.0983,-0.0976,-0.0963,-0.086,-0.0853,-0.0779,-0.0752,-0.0716,-0.0725,-0.0677,-0.0829,-0.0745,-0.0826,-0.0851,-0.0863,-0.0852,-0.0817,-0.09,-0.0665,-0.0508,-0.0811,-0.0762,-0.0766,-0.0769,0,-0.0898,-0.0935,-0.0894,-0.0895,-0.0889,-0.084,-0.0815,-0.075,-0.0644,-0.054,-0.0403,-0.0407,-0.0297,-0.0356,-0.0425,-0.0547,-0.0297,-0.0461,-0.0456,-0.0453,-0.044,-0.0444,-0.0512,-0.0386,-0.0387,-0.0388,-0.0388,0,-0.081,-0.0754,-0.0816,-0.0773,-0.0645,-0.07,-0.0517,-0.0485,-0.035,-0.0138,-0.0228,-0.0028,-0.0169,-0.0077,-0.0234,-0.019,-0.0129,-0.0363,-0.035,-0.0423,-0.0429,-0.0654,-0.0834,-0.0376,-0.0379,-0.0381,-0.0383,0,-0.0595,-0.0677,-0.0588,-0.0587,-0.0564,-0.0444,-0.0304,-0.0139,-0.0074,0.0221,0.0291,0.0372,0.0486,0.0351,0.0344,0.0145,-0.0009,0.0091,0.0035,0.0033,-0.0316,-0.0489,-0.0401,-0.0505,0.017,0.0173,0.0175,0,-0.0455,-0.041,-0.039,-0.0306,-0.0277,-0.0144,-0.0005,0.0034,0.022,0.0486,0.0687,0.0854,0.1,0.1003,0.07,0.0535,0.0196,0.0347,0.0055,-0.0263,-0.0447,-0.0569,-0.0676,0.0111,0.0113,0.0114,0.0115,0,-0.0135,-0.0155,-0.0083,0.0033,0.0164,0.0315,0.0488,0.0652,0.0765,0.0976,0.128,0.1408,0.1395,0.1242,0.0981,0.076,0.0127,0.0368,0.0057,-0.045,-0.0595,-0.0715,-0.0153,0.0127,0.0126,0.0125,0.0124,0.0124,0.0169,0.0258,0.0297,0.0426,0.0568,0.0753,0.0882,0.1072,0.1327,0.1611,0.1707,0.1913,0.1627,0.1258,0.0928,0.0252,0.0248,-0.0035,-0.0188,-0.0257,-0.0462,0.0152,0.0406,0.0406,0.0406,0.0407,0.0407,0,0.0514,0.0534,0.0689,0.0801,0.0975,0.0957,0.1206,0.1319,0.158,0.1889,0.2086,0.2109,0.165,0.1117,0.0283,-0.0233,-0.0495,-0.0534,-0.0796,-0.0861,-0.0287,-0.0409,-0.0343,-0.0343,-0.0342,-0.0342,-0.0342,-0.0341,0.0695,0.0839,0.0835,0.1112,0.1199,0.1383,0.1485,0.1666,0.1861,0.2198,0.2363,0.2475,0.2076,0.0512,-0.0618,-0.089,-0.1312,-0.1326,-0.1491,-0.1256,-0.1226,-0.1198,-0.1359,-0.1493,-0.1494,-0.2052,-0.2058,-0.2063]}],[{"header":{"parameterUnit":"m.s-1","parameterCategory":2,"la1":30.2991,"la2":30.254,"lo1":-89.0895,"lo2":-89.0444,"dy":0.0017,"dx":0.0017,"nx":28,"ny":28,"refTime":"2025-07-19T21:00:00:Z","depth":"2","parameterNumber":2,"parameterNumberName":"U-component_of_CURRENTS"},"data":[0,0,0,0,0,0,0,0,0,0,0,0,0,0,0,0,0,0,0,0,0,0,0,0,0,0,0,0,0,0,0,0,0,0,0,0,0,0,0,0,0,0,0,0,0,0,0,0,0,0,0,0,0,0,0,0,0,0,0.1724,0.1725,0,0.1789,0.1789,0.179,0.1796,0.1796,0.1795,0.1795,0.1797,0.1797,0.1798,0,0,0,0,0,0,0,0,0,0,0,0,0,0.1623,0.1625,0.1724,0.1725,0.1726,0.1789,0.1789,0.179,0.1796,0.1796,0.1795,0.1794,0.1797,0.1797,0.1798,0,0,0,0,0,0,0,0,0,0,0,0,0,0.1674,0.1625,0.1724,0.1738,0.174,0.1788,0.1789,0.179,0.1796,0.1796,0.1795,0.1794,0.1796,0.1797,0.1798,0.182,0,0,0.1801,0.1801,0,0,0,0,0,0,0,0,0.1671,0.1677,0.1735,0.1737,0.1739,0.1785,0.1755,0.1798,0.1797,0.1773,0.1794,0.1794,0.1789,0.179,0.1803,0.182,0.182,0.1801,0.1801,0.1802,0.1802,0,0,0,0,0,0,0,0.1667,0.1675,0.1748,0.1736,0.1739,0.1746,0.1752,0.1763,0.1782,0.1775,0.1776,0.1786,0.1789,0.1802,0.1803,0.182,0.1801,0.1802,0.1802,0.1802,0.1871,0.1872,0,0,0,0,0,0,0.1663,0.1672,0.1746,0.175,0.1704,0.1749,0.1756,0.177,0.1784,0.1786,0.1787,0.1786,0.1801,0.1802,0.1803,0.1848,0.1802,0.1802,0.1803,0.1869,0.1871,0.1872,0,0,0,0,0,0,0.166,0.1669,0.1744,0.1713,0.1723,0.1752,0.1767,0.1772,0.1785,0.1793,0.1794,0.1796,0.18,0.1802,0.1826,0.1847,0.1803,0.1804,0.1868,0.187,0.1872,0.1927,0,0,0,0,0,0,0.1657,0.1668,0.1676,0.1713,0.1725,0.1784,0.1769,0.1773,0.1793,0.1793,0.1802,0.1801,0.18,0.1825,0.1827,0.1848,0.1804,0.1866,0.1869,0.1871,0.1923,0.193,0.1936,0,0,0,0,0,0.1653,0.1671,0.1676,0.1686,0.1736,0.1785,0.1792,0.1808,0.1794,0.1813,0.1818,0.1801,0.1841,0.1827,0.1829,0.185,0.1865,0.1868,0.1871,0.192,0.1929,0.1936,0,0,0,0,0,0,0.163,0.1675,0.1681,0.171,0.1749,0.1787,0.1805,0.1811,0.1831,0.1824,0.1821,0.1823,0.1853,0.1845,0.183,0.1877,0.1849,0.1852,0.1886,0.1894,0.19,0.1895,0.1805,0,0,0,0,0,0.163,0.1656,0.1699,0.1724,0.1743,0.1772,0.1791,0.1805,0.1828,0.1836,0.1844,0.185,0.1869,0.1874,0.189,0.1915,0.197,0.1929,0.1936,0.1942,0.194,0.2071,0.209,0.1882,0.1882,0.1882,0,0,0.1627,0.1655,0.1669,0.1721,0.1748,0.1786,0.1782,0.1818,0.1845,0.1832,0.1866,0.1876,0.1882,0.1917,0.1928,0.1911,0.2034,0.1945,0.195,0.1945,0.2076,0.2097,0.2115,0.1884,0.1883,0.1883,0,0,0.1643,0.1661,0.1692,0.1726,0.1774,0.1796,0.1806,0.185,0.1865,0.1904,0.1902,0.1928,0.1951,0.1967,0.1974,0.2025,0.2068,0.2024,0.205,0.2179,0.2198,0.2215,0.2334,0.2361,0.2024,0.2024,0.2024,0,0.1636,0.1679,0.1709,0.175,0.1772,0.18,0.1834,0.1864,0.1909,0.1928,0.192,0.1985,0.1977,0.2032,0.2037,0.204,0.2122,0.202,0.2191,0.2208,0.2225,0.2343,0.2372,0.2027,0.2027,0.2026,0.2026,0,0.168,0.1711,0.1733,0.1789,0.182,0.1855,0.1897,0.1929,0.1943,0.1973,0.2035,0.2054,0.209,0.2093,0.2071,0.2174,0.22,0.2192,0.2175,0.225,0.2368,0.2398,0.2031,0.203,0.2029,0.2028,0,0,0.1671,0.1747,0.1755,0.1775,0.1838,0.1865,0.1916,0.1971,0.2016,0.2058,0.2138,0.2145,0.2162,0.2171,0.2173,0.2259,0.2434,0.2266,0.2272,0.2391,0.2739,0.2604,0.2624,0.2474,0.2479,0.2483,0.2783,0,0.1694,0.1755,0.1794,0.1843,0.187,0.1909,0.1958,0.2009,0.2064,0.2155,0.2191,0.2267,0.2194,0.2236,0.2305,0.2418,0.2511,0.2353,0.264,0.2648,0.2526,0.2652,0.2391,0.2623,0.2812,0.2817,0.2821,0,0.1725,0.1757,0.1803,0.1859,0.1877,0.1909,0.1985,0.2041,0.2162,0.2216,0.2296,0.2355,0.2467,0.2415,0.2637,0.2551,0.2632,0.2712,0.2727,0.2595,0.2567,0.2573,0.267,0.287,0.2866,0.2863,0.2859,0,0.1692,0.1761,0.1787,0.1807,0.1881,0.1903,0.1946,0.2048,0.214,0.2281,0.2401,0.2505,0.264,0.2743,0.286,0.2785,0.3144,0.307,0.3029,0.3022,0.2846,0.2813,0.3239,0.3239,0.3238,0.3237,0.3237,0,0.1699,0.1721,0.1767,0.1782,0.1839,0.1877,0.1976,0.2042,0.2201,0.2367,0.2434,0.262,0.2741,0.2941,0.2977,0.3111,0.3247,0.3063,0.3098,0.2856,0.2821,0.3051,0.3025,0.3249,0.3246,0.3244,0.3242,0,0.1696,0.1708,0.1757,0.1813,0.183,0.1878,0.2023,0.2136,0.2246,0.249,0.2563,0.2798,0.3033,0.3144,0.338,0.3294,0.3411,0.3419,0.3112,0.31,0.3171,0.3144,0.34,0.3397,0.3396,0.3394,0.3393,0,0.1723,0.1738,0.1798,0.1859,0.1894,0.1968,0.2067,0.216,0.2309,0.2613,0.277,0.3044,0.3204,0.3458,0.3402,0.3452,0.3511,0.3214,0.2964,0.3183,0.3193,0.3169,0.3146,0.2793,0.2787,0.2782,0.2778,0,0.1802,0.1808,0.1858,0.1934,0.2019,0.2118,0.2246,0.2342,0.2514,0.2689,0.2943,0.3071,0.3296,0.3211,0.3241,0.3216,0.3154,0.3107,0.3522,0.274,0.2621,0.2626,0.2622,0.2734,0.2738,0.2741,0.2744,0.2746,0.1885,0.192,0.1947,0.2003,0.2121,0.2184,0.2205,0.2372,0.2494,0.2629,0.2888,0.293,0.2974,0.2821,0.2814,0.2782,0.2938,0.2767,0.278,0.2799,0.2623,0.2501,0.2562,0.2565,0.2568,0.257,0.2572,0,0.1888,0.1898,0.2018,0.2027,0.2095,0.2144,0.2272,0.2245,0.23,0.2468,0.255,0.2327,0.2299,0.2398,0.2261,0.2236,0.2193,0.2174,0.2099,0.2144,0.2184,0.1972,0.1742,0.1739,0.1737,0.1735,0,0,0.1874,0.1875,0.187,0.1891,0.1953,0.1921,0.1925,0.1942,0.1991,0.1943,0.1918,0.2023,0.2214,0.1866,0.1877,0.1808,0.1949,0.1742,0.2405,0.2356,0.2393,0.2526,0.2251,0,0,0,0,0]},{"header":{"parameterUnit":"m.s-1","parameterCategory":2,"la1":30.2991,"la2":30.254,"lo1":-89.0895,"lo2":-89.0444,"dy":0.0017,"dx":0.0017,"nx":28,"ny":28,"refTime":"2025-07-19T21:00:00:Z","depth":"2","parameterNumber":3,"parameterNumberName":"V-component_of_CURRENTS"},"data":[0,0,0,0,0,0,0,0,0,0,0,0,0,0,0,0,0,0,0,0,0,0,0,0,0,0,0,0,0,0,0,0,0,0,0,0,0,0,0,0,0,0,0,0,0,0,0,0,0,0,0,0,0,0,0,0,0,0,-0.0058,-0.0058,0,-0.0086,-0.0086,-0.0087,-0.0148,-0.0149,-0.015,-0.0151,-0.0212,-0.0213,-0.0213,0,0,0,0,0,0,0,0,0,0,0,0,0,-0.0056,-0.0056,-0.0058,-0.0058,-0.0059,-0.0086,-0.0086,-0.0087,-0.0147,-0.0149,-0.015,-0.0152,-0.0212,-0.0213,-0.0213,0,0,0,0,0,0,0,0,0,0,0,0,0,-0.0068,-0.0056,-0.0058,-0.0092,-0.0095,-0.0086,-0.0086,-0.0087,-0.0147,-0.0149,-0.0151,-0.0152,-0.0212,-0.0212,-0.0213,-0.0183,0,0,-0.0216,-0.0216,0,0,0,0,0,0,0,0,-0.0067,-0.0068,-0.0086,-0.0089,-0.0093,-0.0114,-0.0108,-0.012,-0.0147,-0.0128,-0.0151,-0.0153,-0.0181,-0.0184,-0.0186,-0.0186,-0.0188,-0.0216,-0.0216,-0.0217,-0.0217,0,0,0,0,0,0,0,-0.0066,-0.0067,-0.007,-0.0086,-0.009,-0.0105,-0.0109,-0.011,-0.0145,-0.013,-0.0134,-0.0135,-0.0183,-0.0185,-0.0188,-0.0189,-0.0216,-0.0216,-0.0217,-0.0217,-0.0228,-0.0227,0,0,0,0,0,0,-0.0059,-0.0066,-0.0069,-0.0071,-0.0083,-0.0103,-0.0108,-0.0106,-0.0145,-0.0152,-0.0134,-0.0138,-0.0183,-0.0187,-0.019,-0.02,-0.0217,-0.0217,-0.0218,-0.0228,-0.0228,-0.0227,0,0,0,0,0,0,-0.0059,-0.0059,-0.0068,-0.0069,-0.0071,-0.0101,-0.0099,-0.0106,-0.0119,-0.0147,-0.0156,-0.0142,-0.0184,-0.0189,-0.0203,-0.0201,-0.0218,-0.0218,-0.0228,-0.0228,-0.0227,-0.0192,0,0,0,0,0,0,-0.0059,-0.0059,-0.0057,-0.0068,-0.0071,-0.0062,-0.0098,-0.0105,-0.0116,-0.0122,-0.0156,-0.0163,-0.0186,-0.0202,-0.0204,-0.0203,-0.0219,-0.0228,-0.0228,-0.0228,-0.0193,-0.019,-0.0188,0,0,0,0,0,-0.0059,-0.0035,-0.0057,-0.0057,-0.0067,-0.0061,-0.0064,-0.0092,-0.0114,-0.0112,-0.0143,-0.0163,-0.0202,-0.0202,-0.0204,-0.0204,-0.0228,-0.0228,-0.0228,-0.0194,-0.0191,-0.0188,0,0,0,0,0,0,-0.0021,-0.0039,-0.0063,-0.0045,-0.0058,-0.0072,-0.0067,-0.0088,-0.0108,-0.0118,-0.0153,-0.0161,-0.0178,-0.019,-0.0189,-0.0207,-0.022,-0.022,-0.0194,-0.0191,-0.0188,-0.0148,-0.022,0,0,0,0,0,-0.0014,-0.0012,-0.0031,-0.0018,-0.0022,-0.0048,-0.005,-0.007,-0.0087,-0.0098,-0.0125,-0.0152,-0.0174,-0.0182,-0.0202,-0.0198,-0.0217,-0.0202,-0.0199,-0.0197,-0.0166,-0.02,-0.0197,-0.0226,-0.0226,-0.0226,0,0,0.0005,-0.0006,-0.0004,-0.0012,-0.0025,-0.0017,-0.0054,-0.0052,-0.0048,-0.0099,-0.0104,-0.0143,-0.0172,-0.0183,-0.019,-0.0193,-0.0204,-0.0196,-0.0194,-0.0164,-0.0199,-0.0196,-0.0193,-0.0226,-0.0226,-0.0226,0,0,0.0052,0.0033,0.0048,0.0039,0.0023,0.0009,0.001,-0.001,-0.0025,-0.0037,-0.0077,-0.0104,-0.0138,-0.0151,-0.0165,-0.0151,-0.0193,-0.0173,-0.0119,-0.0153,-0.0151,-0.0149,-0.0193,-0.0195,-0.0166,-0.0166,-0.0166,0,0.0074,0.0089,0.0056,0.0068,0.0074,0.0023,0.005,0.0032,0.0007,0.0013,-0.0038,-0.0079,-0.0116,-0.0108,-0.012,-0.0142,-0.0177,-0.0132,-0.0149,-0.0147,-0.0146,-0.0191,-0.0194,-0.0164,-0.0164,-0.0164,-0.0165,0,0.0127,0.0135,0.0149,0.014,0.0142,0.0158,0.0131,0.0127,0.0091,0.0071,0.0056,-0.0005,-0.0023,-0.0054,-0.0089,-0.0089,-0.0125,-0.0148,-0.0155,-0.014,-0.019,-0.0194,-0.0162,-0.0162,-0.0163,-0.0163,0,0,0.0184,0.0187,0.0188,0.0201,0.0184,0.0198,0.0209,0.0219,0.0238,0.0176,0.02,0.013,0.0089,0.0072,0.002,-0.0015,-0.0063,-0.0077,-0.008,-0.0116,-0.0154,-0.0242,-0.0255,-0.0101,-0.0101,-0.0101,-0.0201,0,0.0234,0.028,0.0267,0.0311,0.0335,0.0308,0.033,0.0327,0.0301,0.0304,0.0241,0.0223,0.0138,0.0116,0.007,-0.0017,-0.0066,-0.0033,-0.0165,-0.0168,-0.0244,-0.0259,-0.0216,-0.0307,-0.0205,-0.0206,-0.0206,0,0.0283,0.0311,0.0362,0.0405,0.0415,0.0427,0.0464,0.0475,0.0467,0.045,0.042,0.036,0.0314,0.0221,0.0089,0.0107,-0.0016,-0.0099,-0.0106,-0.0192,-0.0262,-0.0301,-0.0318,-0.0212,-0.0212,-0.0211,-0.0211,0,0.0325,0.0378,0.0423,0.0432,0.0465,0.049,0.0507,0.0516,0.0545,0.0534,0.0549,0.0476,0.044,0.0295,0.0109,0.0093,-0.0051,-0.0094,-0.0287,-0.0295,-0.0281,-0.0288,-0.0196,-0.0196,-0.0196,-0.0196,-0.0195,0,0.0374,0.0402,0.0444,0.0459,0.0525,0.0536,0.0593,0.0603,0.0637,0.0688,0.0616,0.0631,0.0452,0.0344,0.0156,-0.0074,-0.0021,-0.0272,-0.0323,-0.0273,-0.0278,-0.0204,-0.0203,-0.0199,-0.0199,-0.0198,-0.0197,0,0.0365,0.04,0.0446,0.0506,0.053,0.056,0.0634,0.0689,0.0714,0.0779,0.0782,0.0745,0.0599,0.0402,0.0175,-0.001,-0.0221,-0.0323,-0.0261,-0.0304,-0.0457,-0.0453,-0.0541,-0.0545,-0.0548,-0.0551,-0.0553,0,0.0341,0.037,0.0452,0.0491,0.0504,0.0567,0.0629,0.0697,0.0766,0.0846,0.089,0.0797,0.0719,0.0362,0.0053,-0.0278,-0.0296,-0.0473,-0.0503,-0.0449,-0.049,-0.0481,-0.0474,-0.0476,-0.0477,-0.0479,-0.048,0,0.0293,0.0325,0.0374,0.0462,0.053,0.0626,0.0719,0.0796,0.09,0.0972,0.1037,0.0984,0.067,0.0352,-0.0093,-0.0305,-0.0416,-0.0515,-0.0451,-0.0408,-0.04,-0.0436,-0.0428,-0.049,-0.0489,-0.0488,-0.0488,-0.0487,0.0236,0.0266,0.0349,0.0438,0.0536,0.0673,0.0787,0.0903,0.103,0.1148,0.1101,0.1026,0.0686,0.0095,-0.0218,-0.0525,-0.0543,-0.0662,-0.0653,-0.0643,-0.063,-0.063,-0.0761,-0.0762,-0.0762,-0.0762,-0.0763,0,0.0187,0.0257,0.0328,0.0466,0.0602,0.0669,0.0861,0.0992,0.1169,0.1174,0.1197,0.0834,0.0478,0.013,-0.0344,-0.0667,-0.063,-0.0743,-0.0617,-0.0607,-0.0598,-0.0576,-0.0697,-0.0697,-0.0697,-0.0697,0,0,0.0165,0.0239,0.0307,0.0508,0.0636,0.0871,0.1018,0.1165,0.1226,0.1197,0.1119,0.0962,0.0528,0.0189,-0.0199,-0.0432,-0.0439,-0.0474,-0.0503,-0.0299,-0.0285,-0.0541,-0.0498,0,0,0,0,0]}],[{"header":{"parameterUnit":"m.s-1","parameterCategory":2,"la1":30.2991,"la2":30.254,"lo1":-89.0895,"lo2":-89.0444,"dy":0.0017,"dx":0.0017,"nx":28,"ny":28,"refTime":"2025-07-19T21:00:00:Z","depth":"4","parameterNumber":2,"parameterNumberName":"U-component_of_CURRENTS"},"data":[0,0,0,0,0,0,0,0,0,0,0,0,0,0,0,0,0,0,0,0,0,0,0,0,0,0,0,0,0,0,0,0,0,0,0,0,0,0,0,0,0,0,0,0,0,0,0,0,0,0,0,0,0,0,0,0,0,0,0.0778,0.0779,0,0.0862,0.0863,0.0864,0.0931,0.0931,0.0932,0.0932,0.1017,0.1018,0.102,0,0,0,0,0,0,0,0,0,0,0,0,0,0.0649,0.0652,0.0778,0.0779,0.078,0.0862,0.0863,0.0864,0.0931,0.0931,0.0932,0.0932,0.1016,0.1018,0.102,0,0,0,0,0,0,0,0,0,0,0,0,0,0.0718,0.0652,0.0778,0.0822,0.0826,0.0861,0.0863,0.0865,0.093,0.0931,0.0932,0.0933,0.1015,0.1018,0.1021,0.1022,0,0,0.1029,0.103,0,0,0,0,0,0,0,0,0.0714,0.0723,0.0814,0.0819,0.0824,0.0885,0.0849,0.0917,0.093,0.0893,0.0932,0.0933,0.0971,0.0977,0.0994,0.1026,0.103,0.1029,0.1031,0.1032,0.1033,0,0,0,0,0,0,0,0.0709,0.072,0.0813,0.0815,0.0821,0.0828,0.0839,0.0862,0.0928,0.0896,0.0901,0.0907,0.0974,0.0991,0.0996,0.1031,0.1029,0.1031,0.1033,0.1034,0.1119,0.112,0,0,0,0,0,0,0.0696,0.0715,0.0811,0.0816,0.0768,0.0829,0.0842,0.0866,0.0928,0.0938,0.0906,0.091,0.0986,0.0993,0.1,0.1077,0.1032,0.1034,0.1036,0.1118,0.1119,0.112,0,0,0,0,0,0,0.0694,0.0705,0.0807,0.0765,0.0778,0.0831,0.0858,0.0867,0.0909,0.0935,0.0945,0.094,0.0987,0.0996,0.102,0.1078,0.1036,0.1038,0.1118,0.1119,0.112,0.1186,0,0,0,0,0,0,0.069,0.0704,0.0727,0.0764,0.078,0.0842,0.0857,0.0868,0.0909,0.0915,0.0967,0.0974,0.0988,0.1015,0.1022,0.1081,0.104,0.1117,0.1118,0.1119,0.1183,0.1189,0.1195,0,0,0,0,0,0.0685,0.0706,0.0728,0.074,0.0808,0.0843,0.0852,0.0892,0.091,0.0932,0.095,0.0974,0.1029,0.1017,0.1025,0.1087,0.1116,0.1118,0.1119,0.1181,0.1188,0.1194,0,0,0,0,0,0,0.0658,0.0716,0.0741,0.0779,0.0816,0.0854,0.088,0.0903,0.0938,0.0947,0.0971,0.0979,0.1027,0.1032,0.1018,0.111,0.1082,0.1085,0.1126,0.1133,0.1139,0.1145,0.1042,0,0,0,0,0,0.0663,0.0699,0.0747,0.0777,0.0803,0.0846,0.087,0.0895,0.0923,0.0942,0.098,0.101,0.1036,0.1062,0.1083,0.1127,0.1116,0.1172,0.1178,0.1183,0.1192,0.1204,0.1212,0.1125,0.1125,0.1125,0,0,0.0661,0.0695,0.0717,0.0775,0.0812,0.0847,0.0865,0.0905,0.0939,0.0943,0.101,0.1031,0.1047,0.1099,0.1123,0.1115,0.12,0.1185,0.119,0.1195,0.1206,0.1215,0.1223,0.1126,0.1126,0.1125,0,0,0.0659,0.0709,0.0739,0.0776,0.083,0.0855,0.0871,0.0929,0.097,0.1015,0.1032,0.1075,0.1125,0.1156,0.1171,0.1216,0.1223,0.1238,0.1289,0.1301,0.1308,0.1315,0.1303,0.1308,0.125,0.125,0.125,0,0.0653,0.0703,0.075,0.0786,0.0822,0.0861,0.0899,0.0939,0.0997,0.1033,0.1043,0.1128,0.1154,0.1211,0.1238,0.1236,0.1231,0.1266,0.131,0.1316,0.1322,0.1308,0.1313,0.1254,0.1253,0.1253,0.1253,0,0.0673,0.0722,0.0743,0.0808,0.0849,0.0886,0.0944,0.0993,0.1042,0.1084,0.1163,0.1193,0.1254,0.1274,0.1277,0.1345,0.1323,0.131,0.1296,0.1335,0.1318,0.1321,0.1258,0.1257,0.1256,0.1255,0,0,0.0632,0.0739,0.0745,0.0797,0.0869,0.0906,0.0965,0.1036,0.1091,0.1155,0.1233,0.1293,0.1336,0.1355,0.138,0.1397,0.144,0.1386,0.1385,0.1381,0.1455,0.1424,0.1424,0.144,0.1442,0.1443,0.1424,0,0.0636,0.0707,0.076,0.0835,0.0887,0.0951,0.1015,0.1082,0.1141,0.1224,0.1276,0.1352,0.1361,0.1411,0.1436,0.1439,0.1455,0.1445,0.1412,0.1411,0.1385,0.143,0.1447,0.1426,0.1427,0.1428,0.1428,0,0.0635,0.069,0.0768,0.0887,0.0919,0.0968,0.1079,0.1145,0.1245,0.1295,0.137,0.1418,0.1488,0.148,0.1509,0.1506,0.1499,0.1481,0.148,0.1433,0.1388,0.138,0.1434,0.1434,0.1433,0.1433,0.1433,0,0.0586,0.0696,0.0764,0.0803,0.0935,0.0993,0.1067,0.117,0.1242,0.135,0.1404,0.1479,0.1539,0.1538,0.1554,0.1535,0.1557,0.1519,0.1472,0.1468,0.147,0.1464,0.1532,0.1532,0.1532,0.1532,0.1532,0,0.0569,0.0622,0.0757,0.0795,0.0889,0.1001,0.1105,0.1172,0.1297,0.1368,0.146,0.1507,0.156,0.1592,0.1572,0.155,0.158,0.1491,0.1472,0.1496,0.1492,0.1472,0.1466,0.1531,0.1531,0.1531,0.1531,0,0.0506,0.059,0.0672,0.0818,0.0868,0.0942,0.1109,0.118,0.1305,0.1394,0.1438,0.1545,0.158,0.1617,0.1615,0.1576,0.1546,0.153,0.1561,0.1542,0.1432,0.1429,0.1448,0.1447,0.1447,0.1446,0.1445,0,0.0482,0.0519,0.0661,0.0713,0.0783,0.0912,0.0994,0.115,0.1204,0.1386,0.1401,0.1519,0.157,0.1545,0.1579,0.1555,0.1541,0.1516,0.1469,0.1449,0.1429,0.1427,0.1425,0.1444,0.1444,0.1444,0.1443,0,0.0425,0.0476,0.0542,0.0638,0.0727,0.0825,0.0941,0.0988,0.1162,0.1281,0.1355,0.1423,0.1474,0.1492,0.1525,0.1491,0.1524,0.1506,0.1506,0.1462,0.1444,0.1424,0.1423,0.144,0.1441,0.1441,0.1441,0,0.0374,0.039,0.0471,0.056,0.0653,0.0717,0.0803,0.0901,0.0996,0.1201,0.1208,0.1341,0.1442,0.1458,0.1462,0.1471,0.1429,0.1369,0.1375,0.1379,0.1373,0.1341,0.1301,0,0,0,0,0,0.033,0.0338,0.0394,0.048,0.0569,0.0629,0.0755,0.0846,0.1007,0.1033,0.1135,0.1185,0.1271,0.1323,0.1314,0.1403,0.1412,0.1386,0.1339,0.1424,0.1428,0.1432,0,0,0,0,0,0,0.029,0.0326,0.0354,0.0396,0.0453,0.0534,0.0621,0.0734,0.0757,0.093,0.097,0.1111,0.1184,0.1257,0.1286,0.1305,0.1254,0.1471,0.1469,0.1422,0.1425,0.1428,0.1433,0,0,0,0,0]},{"header":{"parameterUnit":"m.s-1","parameterCategory":2,"la1":30.2991,"la2":30.254,"lo1":-89.0895,"lo2":-89.0444,"dy":0.0017,"dx":0.0017,"nx":28,"ny":28,"refTime":"2025-07-19T21:00:00:Z","depth":"4","parameterNumber":3,"parameterNumberName":"V-component_of_CURRENTS"},"data":[0,0,0,0,0,0,0,0,0,0,0,0,0,0,0,0,0,0,0,0,0,0,0,0,0,0,0,0,0,0,0,0,0,0,0,0,0,0,0,0,0,0,0,0,0,0,0,0,0,0,0,0,0,0,0,0,0,0,0.0273,0.0273,0,0.022,0.0219,0.0219,0.0201,0.0202,0.0202,0.0203,0.0149,0.0147,0.0146,0,0,0,0,0,0,0,0,0,0,0,0,0,0.0313,0.0312,0.0273,0.0273,0.0272,0.022,0.0219,0.0218,0.0201,0.0202,0.0202,0.0203,0.015,0.0148,0.0145,0,0,0,0,0,0,0,0,0,0,0,0,0,0.028,0.0312,0.0273,0.0258,0.0257,0.022,0.0219,0.0218,0.0201,0.0202,0.0202,0.0203,0.015,0.0148,0.0145,0.0118,0,0,0.0137,0.0136,0,0,0,0,0,0,0,0,0.0282,0.0278,0.0261,0.0259,0.0257,0.0219,0.0214,0.0185,0.0201,0.0221,0.0203,0.0203,0.0173,0.0168,0.0155,0.0115,0.0113,0.0137,0.0135,0.0134,0.0133,0,0,0,0,0,0,0,0.0284,0.028,0.0251,0.026,0.0258,0.0238,0.0234,0.0208,0.0193,0.0219,0.0218,0.0214,0.0172,0.0158,0.0154,0.0112,0.0137,0.0135,0.0133,0.0132,0.0061,0.0061,0,0,0,0,0,0,0.0295,0.0283,0.0252,0.0249,0.0273,0.0237,0.0233,0.023,0.0194,0.0189,0.0214,0.0214,0.0162,0.0157,0.0152,0.0149,0.0134,0.0132,0.013,0.0061,0.0061,0.0061,0,0,0,0,0,0,0.0296,0.0293,0.0255,0.0266,0.026,0.0237,0.0233,0.0228,0.0219,0.019,0.0185,0.021,0.0162,0.0156,0.0141,0.0146,0.013,0.0128,0.0062,0.0061,0.0061,0.0123,0,0,0,0,0,0,0.0298,0.0294,0.0296,0.0267,0.026,0.0244,0.0232,0.0227,0.0217,0.0216,0.0185,0.018,0.0162,0.0146,0.0139,0.0142,0.0126,0.0062,0.0061,0.0061,0.0122,0.0125,0.0128,0,0,0,0,0,0.0299,0.03,0.0297,0.0293,0.0263,0.0245,0.0239,0.0223,0.0216,0.0216,0.0198,0.0182,0.0137,0.0144,0.0136,0.0138,0.0062,0.0062,0.0061,0.012,0.0124,0.0128,0,0,0,0,0,0,0.0316,0.0298,0.0293,0.0289,0.0274,0.0243,0.024,0.0225,0.0208,0.0211,0.0181,0.0175,0.0164,0.0137,0.0145,0.0113,0.0095,0.0092,0.0142,0.0146,0.0149,0.0123,0.0124,0,0,0,0,0,0.0322,0.0321,0.0299,0.0297,0.0292,0.0266,0.0256,0.0247,0.0227,0.022,0.0199,0.0173,0.0152,0.014,0.0118,0.01,0.0042,0.0093,0.0097,0.01,0.0071,-0.0004,-0.0011,0.0058,0.0059,0.0059,0,0,0.0328,0.0318,0.0318,0.0301,0.0288,0.0286,0.0262,0.0254,0.025,0.0216,0.0209,0.0187,0.015,0.0137,0.0128,0.0118,0.0052,0.0099,0.0102,0.0071,-0.0006,-0.0012,-0.0019,0.0058,0.0058,0.0058,0,0,0.0343,0.0332,0.034,0.0332,0.032,0.0303,0.0303,0.0279,0.0269,0.0259,0.0233,0.0205,0.0182,0.0148,0.0129,0.0128,0.0075,0.0131,0.0124,0.0053,0.0046,0.004,-0.0028,-0.0041,0.013,0.013,0.013,0,0.0351,0.0353,0.0339,0.0345,0.0335,0.0314,0.0314,0.0304,0.0278,0.0252,0.0269,0.0195,0.018,0.0128,0.0139,0.0134,0.0086,0.0121,0.0057,0.0049,0.0041,-0.0027,-0.0042,0.0133,0.0133,0.0132,0.0132,0,0.0372,0.0375,0.0377,0.0378,0.0368,0.0363,0.0347,0.0333,0.032,0.0293,0.0248,0.0221,0.0165,0.017,0.0161,0.0095,0.0077,0.0076,0.005,0.0038,-0.0033,-0.005,0.0137,0.0136,0.0135,0.0135,0,0,0.0371,0.0388,0.0388,0.0387,0.0379,0.0366,0.0362,0.0324,0.0295,0.028,0.0228,0.0202,0.0167,0.014,0.0118,0.0064,-0.0008,0.0053,0.0048,-0.0011,-0.0169,-0.0123,-0.0138,-0.0015,-0.0018,-0.002,-0.019,0,0.0384,0.04,0.0402,0.0405,0.0402,0.0379,0.0369,0.0335,0.0304,0.0256,0.0204,0.0161,0.0164,0.0139,0.0086,0.001,-0.0054,0.0037,-0.0155,-0.0161,-0.0115,-0.0156,-0.0029,-0.0203,-0.0207,-0.021,-0.0212,0,0.0392,0.0397,0.041,0.0396,0.0392,0.0394,0.0337,0.0329,0.0261,0.0231,0.0167,0.0128,0.0043,0.006,-0.0101,-0.0041,-0.0109,-0.0163,-0.0171,-0.0171,-0.0148,-0.0195,-0.0244,-0.0242,-0.0239,-0.0237,-0.0235,0,0.0374,0.039,0.0396,0.0396,0.0391,0.0378,0.0366,0.0312,0.0295,0.0208,0.0178,0.0066,0.0019,-0.0092,-0.0182,-0.0154,-0.0357,-0.0335,-0.037,-0.0368,-0.0385,-0.0376,-0.0469,-0.0469,-0.0468,-0.0468,-0.0467,0,0.0366,0.0365,0.0393,0.0392,0.0384,0.0379,0.0355,0.0318,0.0276,0.025,0.0168,0.0121,-0.0019,-0.0131,-0.0221,-0.0349,-0.0397,-0.0401,-0.0418,-0.0351,-0.0337,-0.0396,-0.0386,-0.0474,-0.0473,-0.0471,-0.047,0,0.0342,0.0365,0.037,0.0377,0.0382,0.0374,0.0378,0.0365,0.0315,0.0278,0.0255,0.0136,-0.0008,-0.0147,-0.0338,-0.0388,-0.0522,-0.0555,-0.0488,-0.0494,-0.0481,-0.0466,-0.0634,-0.0634,-0.0634,-0.0634,-0.0634,0,0.0325,0.0333,0.0364,0.0377,0.0386,0.039,0.0405,0.0384,0.0376,0.0298,0.028,0.0138,0.0053,-0.0196,-0.0341,-0.0549,-0.0548,-0.0629,-0.0549,-0.0503,-0.0504,-0.0488,-0.0472,-0.0634,-0.0634,-0.0634,-0.0634,0,0.0286,0.0313,0.0328,0.037,0.0397,0.0418,0.0431,0.0434,0.0415,0.0378,0.0297,0.0173,0.001,-0.0175,-0.034,-0.0476,-0.0586,-0.063,-0.063,-0.0555,-0.0505,-0.0502,-0.0487,-0.0634,-0.0634,-0.0634,-0.0634,0,0.0263,0.0275,0.032,0.0354,0.04,0.0434,0.0438,0.0441,0.0436,0.0373,0.0346,0.0177,0.0071,-0.014,-0.029,-0.0425,-0.044,-0.0461,-0.047,-0.0472,-0.0352,-0.0261,-0.0355,0,0,0,0,0,0.0237,0.0265,0.0298,0.0342,0.0396,0.0415,0.0456,0.0463,0.0462,0.0426,0.039,0.025,0.0032,-0.0083,-0.0209,-0.0293,-0.0475,-0.0444,-0.0505,-0.0633,-0.0633,-0.0513,0,0,0,0,0,0,0.0217,0.0258,0.0292,0.0341,0.0366,0.0417,0.0446,0.0443,0.0416,0.0397,0.0278,0.0227,0.0002,0.0097,-0.0215,-0.0259,-0.0309,-0.0553,-0.0555,-0.0633,-0.0633,-0.0633,-0.0509,0,0,0,0,0]}]]